Flag for Germany Weather for the Past 2 Weeks in Weilheim in Oberbayern, Bavaria, Germany

Now
36 °F

Chilly.


Feels Like: 25 °F
Forecast: 35 / 40 °F
Wind: 20 mph from West

Location: Altenstadt Airport

Current Time: Feb 10, 2016 at 12:39:09 AM

Latest Report: Feb 9, 2016 at 11:20 PM


Visibility: N/A

Pressure: 29.33 "Hg (27.36 "Hg at 560m altitude)

Humidity: 87%

Dew point: 32 °F

Location of Weilheim in OberbayernLocation

Historic Weather in Weilheim in Oberbayern — Graph

°F

Weilheim in Oberbayern Temperature Yesterday

Maximum temperature yesterday: 50 °F (at 2:20 PM)
Minimum temperature yesterday: 36 °F (at 6:20 AM)
Average temperature yesterday: 43 °F

High & Low Weather Summary for the Past Weeks

 TemperatureHumidityPressure
High55 °F (Jan 26, 2:20 PM)100% (Jan 29, 12:20 AM)30.42 "Hg (Jan 29, 12:20 AM)
Low27 °F (Feb 6, 5:20 AM)31% (Feb 7, 1:20 PM)29.24 "Hg (Feb 9, 7:20 PM)
Average41 °F77%30.09 "Hg
* Reported Jan 25 10:20 PM — Feb 9 10:20 PM, Weilheim in Oberbayern, Weather by CustomWeather, © 2016

Note: Actual official high and low records may vary slightly from our data, if they occured in-between our weather recording intervals... More about our weather records

Advertising

Weilheim in Oberbayern Weather History for the Previous 24 Hours

 ConditionsComfort  
Time TempWeatherWind HumidityBarometerVisibility
10:20 PM
Tue, Feb 9
37 °FChilly.26 mph81%29.36 "HgN/A
9:20 PM37 °FChilly.38 mph87%29.33 "HgN/A
8:51 PM46 °FSprinkles. Partly cloudy.17 mph66%29.30 "HgN/A
8:20 PM48 °FLight rain. Passing clouds.25 mph58%29.27 "HgN/A
8:00 PM48 °FPassing clouds.10 mph54%29.27 "HgN/A
7:20 PM50 °FPassing clouds.15 mph50%29.24 "HgN/A
6:20 PM48 °FPassing clouds.14 mph58%29.30 "HgN/A
5:20 PM45 °FPartly sunny.3 mph81%29.30 "HgN/A
4:20 PM48 °FPartly sunny.5 mph66%29.30 "HgN/A
3:20 PM48 °FBroken clouds.3 mph66%29.33 "HgN/A
2:20 PM50 °FBroken clouds.1 mph58%29.36 "HgN/A
1:20 PM48 °FPartly sunny.5 mph58%29.42 "HgN/A
12:20 PM46 °FPartly sunny.6 mph62%29.50 "HgN/A
11:20 AM45 °FBroken clouds.1 mph76%29.59 "HgN/A
10:20 AM41 °FBroken clouds.5 mph87%29.59 "HgN/A
9:20 AM36 °FBroken clouds.2 mph100%29.65 "HgN/A
8:20 AM36 °FFog.6 mph100%29.68 "HgN/A
7:20 AM36 °FPassing clouds.3 mph93%29.68 "HgN/A
6:20 AM36 °FPassing clouds.3 mph100%29.74 "HgN/A
5:20 AM39 °FPassing clouds.8 mph87%29.77 "HgN/A
4:20 AM39 °FChilly.18 mph93%29.77 "HgN/A
3:20 AM41 °FQuite cool.16 mph87%29.80 "HgN/A
2:20 AM41 °FQuite cool.14 mph81%29.77 "HgN/A
1:20 AM41 °FQuite cool.18 mph87%29.80 "HgN/A
12:20 AM41 °FQuite cool.18 mph93%29.80 "HgN/A
Weather by CustomWeather, © 2016

See weather overviewHow to use our weather pages